[[{"header":{"parameterUnit":"m.s-1","parameterCategory":2,"la1":30.2991,"la2":30.254,"lo1":-89.0895,"lo2":-89.0444,"dy":0.0017,"dx":0.0017,"nx":28,"ny":28,"refTime":"2023-07-28T09:00:00:Z","depth":"0","parameterNumber":2,"parameterNumberName":"U-component_of_CURRENTS"},"data":[0,0,0,0,0,0,0,0,0,0,0,0,0,0,0,0,0,0,0,0,0,0,0,0,0,0,0,0,0,0,0,0,0,0,0,0,0,0,0,0,0,0,0,0,0,0,0,0,0,0,0,0,0,0,0,0,0,0,-0.1915,-0.1915,0,-0.1852,-0.185,-0.1848,-0.1741,-0.174,-0.1739,-0.1738,-0.1595,-0.1592,-0.1589,0,0,0,0,0,0,0,0,0,0,0,0,0,-0.1816,-0.1819,-0.1915,-0.1915,-0.1915,-0.1852,-0.185,-0.1848,-0.1742,-0.174,-0.1739,-0.1738,-0.1596,-0.1593,-0.1589,0,0,0,0,0,0,0,0,0,0,0,0,0,-0.1807,-0.1819,-0.1915,-0.1862,-0.1857,-0.1852,-0.185,-0.1848,-0.1742,-0.174,-0.1739,-0.1737,-0.1597,-0.1593,-0.1589,-0.1594,0,0,-0.1576,-0.1574,0,0,0,0,0,0,0,0,-0.1808,-0.181,-0.187,-0.1866,-0.1861,-0.1812,-0.1763,-0.1762,-0.1742,-0.1775,-0.1738,-0.1736,-0.1668,-0.1658,-0.1636,-0.1587,-0.1581,-0.1575,-0.1573,-0.1571,-0.157,0,0,0,0,0,0,0,-0.1809,-0.1811,-0.1879,-0.187,-0.1865,-0.1799,-0.1795,-0.1761,-0.1722,-0.1772,-0.1767,-0.1776,-0.1663,-0.164,-0.1632,-0.1579,-0.1575,-0.1572,-0.1569,-0.1567,-0.1435,-0.1434,0,0,0,0,0,0,-0.1847,-0.1813,-0.1882,-0.1878,-0.1842,-0.1803,-0.1799,-0.1821,-0.1723,-0.1711,-0.1778,-0.1772,-0.1648,-0.1637,-0.1626,-0.1602,-0.1571,-0.1567,-0.1564,-0.1436,-0.1435,-0.1434,0,0,0,0,0,0,-0.1845,-0.1854,-0.1884,-0.1851,-0.1852,-0.1808,-0.1832,-0.182,-0.1798,-0.1731,-0.1714,-0.1769,-0.1647,-0.1632,-0.158,-0.1597,-0.1565,-0.1561,-0.1437,-0.1436,-0.1434,-0.157,0,0,0,0,0,0,-0.1843,-0.1854,-0.1866,-0.1855,-0.1856,-0.1875,-0.1834,-0.1821,-0.1811,-0.1802,-0.1718,-0.1702,-0.1644,-0.1586,-0.1576,-0.159,-0.1558,-0.1438,-0.1436,-0.1435,-0.1567,-0.1574,-0.1579,0,0,0,0,0,-0.1839,-0.1856,-0.1867,-0.1875,-0.188,-0.1877,-0.1869,-0.1824,-0.1813,-0.1798,-0.1738,-0.1705,-0.1566,-0.1583,-0.157,-0.1584,-0.1439,-0.1437,-0.1435,-0.1564,-0.1572,-0.1579,0,0,0,0,0,0,-0.18,-0.1848,-0.1859,-0.1885,-0.1887,-0.1862,-0.1846,-0.1839,-0.1783,-0.1768,-0.1704,-0.1684,-0.1636,-0.1587,-0.1607,-0.1532,-0.1494,-0.1489,-0.1596,-0.1603,-0.1609,-0.1577,-0.1554,0,0,0,0,0,-0.1812,-0.1838,-0.1869,-0.1882,-0.1894,-0.188,-0.1872,-0.1853,-0.1817,-0.1791,-0.1739,-0.1672,-0.1619,-0.1594,-0.1527,-0.1508,-0.1456,-0.1499,-0.1505,-0.1512,-0.1471,-0.1425,-0.1425,-0.1427,-0.1427,-0.1427,0,0,-0.1794,-0.1828,-0.1837,-0.1877,-0.1871,-0.1885,-0.1866,-0.186,-0.1854,-0.1786,-0.1742,-0.1691,-0.1613,-0.1571,-0.1547,-0.1537,-0.1491,-0.1509,-0.1515,-0.147,-0.1423,-0.1423,-0.1424,-0.1425,-0.1425,-0.1426,0,0,-0.1768,-0.1814,-0.1825,-0.1847,-0.187,-0.1876,-0.1888,-0.1879,-0.1853,-0.183,-0.1768,-0.1711,-0.1656,-0.1584,-0.1549,-0.1545,-0.1518,-0.1552,-0.1573,-0.1533,-0.1533,-0.1532,-0.1513,-0.1509,-0.1567,-0.1567,-0.1567,0,-0.174,-0.1779,-0.1819,-0.1844,-0.1865,-0.1884,-0.1899,-0.1885,-0.1852,-0.1839,-0.1821,-0.1709,-0.1644,-0.1588,-0.1577,-0.1559,-0.1551,-0.157,-0.1546,-0.1543,-0.154,-0.152,-0.1514,-0.1573,-0.1572,-0.1572,-0.1571,0,-0.1727,-0.1765,-0.1773,-0.1828,-0.1855,-0.1866,-0.1895,-0.1893,-0.1891,-0.1879,-0.1824,-0.1733,-0.1658,-0.1652,-0.1614,-0.157,-0.1579,-0.1562,-0.1542,-0.1549,-0.1527,-0.1518,-0.1582,-0.158,-0.1578,-0.1576,0,0,-0.1639,-0.1744,-0.1744,-0.1777,-0.1854,-0.1866,-0.1893,-0.1911,-0.1908,-0.1879,-0.186,-0.176,-0.1722,-0.167,-0.1624,-0.159,-0.1576,-0.1583,-0.1578,-0.159,-0.1525,-0.1423,-0.1404,-0.1593,-0.1591,-0.159,-0.1538,0,-0.1607,-0.1646,-0.1724,-0.1763,-0.1788,-0.1861,-0.188,-0.1904,-0.1908,-0.1893,-0.1833,-0.1772,-0.1732,-0.1692,-0.1658,-0.1578,-0.1552,-0.1592,-0.1489,-0.1484,-0.1414,-0.1388,-0.1211,-0.1139,-0.1529,-0.1527,-0.1526,0,-0.156,-0.1601,-0.1628,-0.1738,-0.1758,-0.1788,-0.184,-0.1865,-0.1881,-0.1878,-0.1846,-0.1803,-0.1721,-0.169,-0.1571,-0.1619,-0.1565,-0.1519,-0.1517,-0.1348,-0.1362,-0.1179,-0.1108,-0.1163,-0.1513,-0.1514,-0.1515,0,-0.1439,-0.154,-0.1558,-0.1592,-0.1705,-0.173,-0.1791,-0.1836,-0.1826,-0.185,-0.181,-0.1782,-0.1681,-0.165,-0.1537,-0.1569,-0.1428,-0.1455,-0.1315,-0.131,-0.1087,-0.1063,-0.1057,-0.1363,-0.1363,-0.1363,-0.1363,0,-0.1369,-0.1387,-0.1498,-0.1499,-0.1521,-0.1649,-0.166,-0.1713,-0.1747,-0.1696,-0.1759,-0.1652,-0.1659,-0.1581,-0.1551,-0.1386,-0.1428,-0.1281,-0.1267,-0.1133,-0.1115,-0.1089,-0.1154,-0.1361,-0.1361,-0.1362,-0.1362,0,-0.1221,-0.1297,-0.1315,-0.1422,-0.1452,-0.1458,-0.1558,-0.1549,-0.1607,-0.1536,-0.1523,-0.1515,-0.1397,-0.1409,-0.1326,-0.1315,-0.1202,-0.1174,-0.1027,-0.0994,-0.0909,-0.0986,-0.0906,-0.088,-0.1014,-0.1011,-0.1008,0,-0.1149,-0.1135,-0.1205,-0.1195,-0.1236,-0.1284,-0.1298,-0.143,-0.1419,-0.1393,-0.132,-0.1228,-0.1081,-0.0984,-0.096,-0.0914,-0.1006,-0.0789,-0.0774,-0.0844,-0.0922,-0.1009,-0.1002,-0.0565,-0.0559,-0.0554,-0.055,0,-0.0997,-0.1008,-0.1017,-0.0985,-0.0993,-0.1028,-0.1072,-0.1049,-0.1155,-0.1096,-0.0976,-0.0865,-0.0713,-0.0524,-0.0507,-0.0524,-0.0771,-0.0681,-0.0771,-0.0557,-0.0626,-0.0614,-0.071,-0.0505,-0.051,-0.0513,-0.0515,-0.0517,-0.0859,-0.0815,-0.0804,-0.0776,-0.0779,-0.0764,-0.0743,-0.0783,-0.0749,-0.0651,-0.0646,-0.043,-0.0203,-0.0089,-0.0199,-0.0267,-0.0359,-0.0265,-0.0355,-0.0441,-0.0389,-0.0392,-0.0163,-0.0165,-0.0167,-0.0169,-0.0171,0,-0.0695,-0.0659,-0.0604,-0.0573,-0.0524,-0.059,-0.0576,-0.0531,-0.0447,-0.0357,-0.0242,0.0088,0.0291,0.0279,0.0281,0.0109,-0.0041,-0.004,-0.0131,-0.0141,-0.0124,-0.0075,0.0208,0.0208,0.0208,0.0208,0.0208,0.0208,-0.06,-0.05,-0.0479,-0.0349,-0.0328,-0.0254,-0.0226,-0.0149,-0.0078,0.0139,0.0311,0.0423,0.0553,0.0505,0.0304,0.0174,-0.0018,-0.0003,-0.0174,-0.0189,-0.0219,-0.0248,-0.0218,0.003,0.003,-0.0091,-0.0092,-0.0093]},{"header":{"parameterUnit":"m.s-1","parameterCategory":2,"la1":30.2991,"la2":30.254,"lo1":-89.0895,"lo2":-89.0444,"dy":0.0017,"dx":0.0017,"nx":28,"ny":28,"refTime":"2023-07-28T09:00:00:Z","depth":"0","parameterNumber":3,"parameterNumberName":"V-component_of_CURRENTS"},"data":[0,0,0,0,0,0,0,0,0,0,0,0,0,0,0,0,0,0,0,0,0,0,0,0,0,0,0,0,0,0,0,0,0,0,0,0,0,0,0,0,0,0,0,0,0,0,0,0,0,0,0,0,0,0,0,0,0,0,-0.1013,-0.1013,0,-0.106,-0.106,-0.1061,-0.1079,-0.1078,-0.1078,-0.1077,-0.103,-0.103,-0.1029,0,0,0,0,0,0,0,0,0,0,0,0,0,-0.0939,-0.0941,-0.1013,-0.1013,-0.1014,-0.1059,-0.106,-0.1061,-0.1079,-0.1078,-0.1078,-0.1077,-0.1031,-0.103,-0.1029,0,0,0,0,0,0,0,0,0,0,0,0,0,-0.0981,-0.0942,-0.1013,-0.1025,-0.1026,-0.1059,-0.106,-0.1062,-0.1079,-0.1078,-0.1077,-0.1077,-0.1031,-0.103,-0.1029,-0.1036,0,0,-0.1025,-0.1025,0,0,0,0,0,0,0,0,-0.0978,-0.0984,-0.1023,-0.1024,-0.1026,-0.1059,-0.1017,-0.1047,-0.1079,-0.1063,-0.1077,-0.1076,-0.1029,-0.1028,-0.1045,-0.1034,-0.1032,-0.1025,-0.1024,-0.1024,-0.1023,0,0,0,0,0,0,0,-0.0976,-0.0982,-0.1035,-0.1023,-0.1025,-0.1028,-0.1033,-0.1024,-0.1051,-0.1064,-0.1065,-0.1064,-0.103,-0.1047,-0.1044,-0.1031,-0.1025,-0.1024,-0.1023,-0.1023,-0.1002,-0.1002,0,0,0,0,0,0,-0.0963,-0.098,-0.1034,-0.1036,-0.0996,-0.1029,-0.1036,-0.1052,-0.1053,-0.1052,-0.1065,-0.1065,-0.1049,-0.1046,-0.1042,-0.1006,-0.1024,-0.1023,-0.1022,-0.1002,-0.1002,-0.1002,0,0,0,0,0,0,-0.0962,-0.0969,-0.1032,-0.1005,-0.1012,-0.1031,-0.105,-0.1053,-0.1068,-0.1054,-0.1052,-0.1074,-0.1048,-0.1044,-0.1045,-0.1006,-0.1022,-0.1021,-0.1001,-0.1002,-0.1002,-0.0962,0,0,0,0,0,0,-0.096,-0.0968,-0.0987,-0.1005,-0.1013,-0.1058,-0.105,-0.1055,-0.1067,-0.1068,-0.1061,-0.1057,-0.1047,-0.1047,-0.1044,-0.1004,-0.102,-0.1001,-0.1001,-0.1002,-0.0963,-0.0961,-0.0959,0,0,0,0,0,-0.0958,-0.1001,-0.0988,-0.0995,-0.1036,-0.1058,-0.1064,-0.1076,-0.1068,-0.1085,-0.1081,-0.1057,-0.1045,-0.1047,-0.1043,-0.1002,-0.1001,-0.1001,-0.1002,-0.0964,-0.0961,-0.0959,0,0,0,0,0,0,-0.0992,-0.1006,-0.0993,-0.1041,-0.1042,-0.106,-0.1082,-0.1077,-0.1091,-0.1089,-0.107,-0.1066,-0.1052,-0.1045,-0.1047,-0.1001,-0.1014,-0.1014,-0.0987,-0.0984,-0.0982,-0.0916,-0.1019,0,0,0,0,0,-0.1,-0.1032,-0.103,-0.1067,-0.1065,-0.1067,-0.1079,-0.1082,-0.1089,-0.1095,-0.1085,-0.1072,-0.1053,-0.1035,-0.1034,-0.101,-0.0938,-0.098,-0.0978,-0.0976,-0.0923,-0.0761,-0.0736,-0.1003,-0.1003,-0.1003,0,0,-0.1024,-0.1035,-0.1053,-0.1074,-0.1076,-0.1086,-0.1075,-0.1096,-0.1086,-0.1085,-0.1081,-0.1075,-0.1052,-0.103,-0.1019,-0.1013,-0.0883,-0.0976,-0.0974,-0.0921,-0.0758,-0.073,-0.0706,-0.1003,-0.1003,-0.1003,0,0,-0.1078,-0.1089,-0.112,-0.1123,-0.1123,-0.1116,-0.1116,-0.1123,-0.1105,-0.1111,-0.1089,-0.1038,-0.106,-0.0987,-0.0963,-0.0942,-0.0889,-0.0974,-0.0885,-0.073,-0.0704,-0.068,-0.0627,-0.0598,-0.0955,-0.0955,-0.0955,0,-0.1095,-0.1136,-0.1132,-0.1153,-0.1149,-0.1124,-0.1134,-0.1118,-0.1122,-0.106,-0.1111,-0.1019,-0.1013,-0.0885,-0.0896,-0.0922,-0.0875,-0.0894,-0.0718,-0.0693,-0.0669,-0.0619,-0.0588,-0.0953,-0.0953,-0.0953,-0.0954,0,-0.1161,-0.1186,-0.1205,-0.1208,-0.1204,-0.1219,-0.1174,-0.1133,-0.111,-0.1068,-0.0964,-0.0945,-0.0854,-0.0866,-0.0885,-0.0709,-0.0751,-0.0744,-0.0709,-0.0638,-0.0594,-0.0561,-0.095,-0.0951,-0.0952,-0.0952,0,0,-0.1194,-0.1241,-0.1242,-0.1238,-0.123,-0.1225,-0.1162,-0.1068,-0.0955,-0.0953,-0.0801,-0.0774,-0.0713,-0.0679,-0.066,-0.0542,-0.0382,-0.0582,-0.0575,-0.0502,-0.0109,-0.0167,-0.0139,-0.0346,-0.0339,-0.0333,-0.017,0,-0.1228,-0.1284,-0.1286,-0.1297,-0.1302,-0.1228,-0.1146,-0.1046,-0.0951,-0.0801,-0.0695,-0.0591,-0.0656,-0.0593,-0.0478,-0.0408,-0.0286,-0.0431,-0.021,-0.0204,-0.0237,-0.0097,-0.0007,0.0147,-0.0139,-0.0133,-0.013,0,-0.1262,-0.1293,-0.1329,-0.1279,-0.1263,-0.1256,-0.1055,-0.0985,-0.0744,-0.065,-0.0488,-0.0416,-0.0246,-0.031,-0.0088,-0.019,-0.0129,-0.0083,-0.0075,-0.0097,-0.0197,0.0042,0.0216,0.0261,-0.008,-0.0084,-0.0087,0,-0.1253,-0.1296,-0.1321,-0.1326,-0.1274,-0.1219,-0.1155,-0.0934,-0.0801,-0.0537,-0.0417,-0.0205,-0.0111,0.0033,0.0069,0.0023,0.0291,0.0254,0.0271,0.0262,0.0407,0.04,0.0697,0.0486,0.0486,0.0485,0.0485,0,-0.1263,-0.1268,-0.133,-0.134,-0.1286,-0.1234,-0.1089,-0.0942,-0.0701,-0.0527,-0.0354,-0.0198,-0.0016,0.0124,0.0172,0.0296,0.0386,0.0345,0.0351,0.0405,0.0396,0.0491,0.0462,0.0491,0.049,0.0489,0.0488,0,-0.1214,-0.1274,-0.1294,-0.1294,-0.1292,-0.1243,-0.1116,-0.0968,-0.0756,-0.0516,-0.0434,-0.016,0.0038,0.0182,0.041,0.041,0.0604,0.0571,0.0555,0.0558,0.0604,0.057,0.0865,0.0944,0.0669,0.0669,0.067,0,-0.1182,-0.1205,-0.1276,-0.129,-0.1305,-0.1252,-0.1174,-0.0999,-0.0843,-0.0522,-0.0399,-0.0136,0.0044,0.0321,0.0496,0.0667,0.0675,0.0761,0.073,0.0684,0.0653,0.0618,0.0662,0.0905,0.0908,0.0909,0.0911,0,-0.1093,-0.1143,-0.1168,-0.1227,-0.123,-0.1197,-0.1101,-0.0993,-0.0752,-0.0568,-0.0317,-0.0164,0.016,0.0427,0.0637,0.0721,0.0827,0.0796,0.0845,0.0966,0.0871,0.092,0.0617,0.0927,0.0925,0.0924,0.0923,0.0922,-0.1003,-0.1019,-0.1085,-0.1123,-0.1135,-0.1097,-0.1029,-0.0906,-0.0704,-0.0378,-0.0299,-0.0043,0.0285,0.065,0.0737,0.1,0.0971,0.1059,0.1044,0.103,0.1074,0.0729,0.0968,0.0967,0.0965,0.0964,0.0964,0,-0.0872,-0.0921,-0.0963,-0.1012,-0.0997,-0.1038,-0.092,-0.0806,-0.0603,-0.0371,-0.0155,0.0214,0.0533,0.0808,0.1188,0.1253,0.1291,0.128,0.1328,0.1382,0.1206,0.1181,0.1365,0.1365,0.1365,0.1365,0.1365,0.1364,-0.08,-0.0811,-0.0867,-0.0854,-0.0886,-0.0815,-0.0749,-0.0609,-0.0428,-0.0081,0.0172,0.0366,0.0733,0.109,0.14,0.1446,0.1516,0.1507,0.1511,0.1415,0.1394,0.1375,0.1352,0.1568,0.1568,0.1769,0.1771,0.1772]}],[{"header":{"parameterUnit":"m.s-1","parameterCategory":2,"la1":30.2991,"la2":30.254,"lo1":-89.0895,"lo2":-89.0444,"dy":0.0017,"dx":0.0017,"nx":28,"ny":28,"refTime":"2023-07-28T09:00:00:Z","depth":"2","parameterNumber":2,"parameterNumberName":"U-component_of_CURRENTS"},"data":[0,0,0,0,0,0,0,0,0,0,0,0,0,0,0,0,0,0,0,0,0,0,0,0,0,0,0,0,0,0,0,0,0,0,0,0,0,0,0,0,0,0,0,0,0,0,0,0,0,0,0,0,0,0,0,0,0,0,-0.2053,-0.2055,0,-0.2225,-0.2227,-0.2229,-0.2312,-0.2312,-0.2312,-0.2312,-0.2491,-0.2495,-0.25,0,0,0,0,0,0,0,0,0,0,0,0,0,-0.1901,-0.1902,-0.2053,-0.2055,-0.2057,-0.2224,-0.2227,-0.2229,-0.2312,-0.2312,-0.2312,-0.2312,-0.2489,-0.2495,-0.25,0,0,0,0,0,0,0,0,0,0,0,0,0,-0.2008,-0.1903,-0.2053,-0.2119,-0.2127,-0.2224,-0.2227,-0.223,-0.2312,-0.2312,-0.2312,-0.2312,-0.2487,-0.2494,-0.2501,-0.2544,0,0,-0.2523,-0.2526,0,0,0,0,0,0,0,0,-0.2001,-0.2013,-0.2107,-0.2115,-0.2124,-0.2248,-0.2239,-0.2335,-0.2312,-0.2241,-0.2312,-0.2312,-0.2411,-0.2424,-0.2455,-0.2552,-0.256,-0.2523,-0.2528,-0.2531,-0.2533,0,0,0,0,0,0,0,-0.1994,-0.2007,-0.212,-0.211,-0.212,-0.2177,-0.2191,-0.2258,-0.2323,-0.2247,-0.2254,-0.2274,-0.2415,-0.2448,-0.246,-0.2562,-0.2523,-0.2529,-0.2534,-0.2537,-0.2667,-0.2667,0,0,0,0,0,0,-0.1969,-0.1999,-0.2115,-0.2125,-0.2063,-0.2179,-0.2195,-0.2207,-0.2322,-0.234,-0.2274,-0.2277,-0.2436,-0.2451,-0.2466,-0.253,-0.2531,-0.2537,-0.2541,-0.2668,-0.2667,-0.2666,0,0,0,0,0,0,-0.1965,-0.1977,-0.2108,-0.2068,-0.2088,-0.2181,-0.2195,-0.2211,-0.228,-0.2343,-0.236,-0.233,-0.2436,-0.2456,-0.2537,-0.2537,-0.254,-0.2547,-0.2669,-0.2668,-0.2667,-0.2653,0,0,0,0,0,0,-0.196,-0.1975,-0.1976,-0.2065,-0.209,-0.2172,-0.2195,-0.2214,-0.229,-0.2297,-0.2396,-0.2411,-0.2438,-0.2526,-0.2544,-0.2547,-0.2552,-0.267,-0.2669,-0.2667,-0.2655,-0.2652,-0.265,0,0,0,0,0,-0.1953,-0.1964,-0.1975,-0.1989,-0.2088,-0.2173,-0.2191,-0.2257,-0.2293,-0.2321,-0.2383,-0.241,-0.2527,-0.2533,-0.2553,-0.2558,-0.2671,-0.2669,-0.2667,-0.2656,-0.2653,-0.265,0,0,0,0,0,0,-0.1913,-0.1976,-0.199,-0.2021,-0.209,-0.2187,-0.2215,-0.228,-0.2356,-0.2363,-0.2431,-0.245,-0.251,-0.2537,-0.2541,-0.2583,-0.2592,-0.2594,-0.2576,-0.2573,-0.257,-0.255,-0.2558,0,0,0,0,0,-0.1898,-0.1916,-0.1992,-0.2021,-0.2044,-0.2138,-0.2184,-0.2238,-0.2316,-0.2352,-0.2428,-0.2479,-0.2514,-0.2549,-0.2589,-0.2641,-0.261,-0.2644,-0.2641,-0.2639,-0.2632,-0.2555,-0.2544,-0.2661,-0.2661,-0.2661,0,0,-0.19,-0.193,-0.1947,-0.2013,-0.2063,-0.2136,-0.2166,-0.224,-0.2322,-0.2358,-0.248,-0.2491,-0.2527,-0.2565,-0.2592,-0.2595,-0.2593,-0.2637,-0.2635,-0.2629,-0.2552,-0.254,-0.253,-0.266,-0.266,-0.266,0,0,-0.1909,-0.1925,-0.1941,-0.1989,-0.2061,-0.2139,-0.2171,-0.2281,-0.2335,-0.2452,-0.2461,-0.2471,-0.2594,-0.2572,-0.2587,-0.2598,-0.2583,-0.2607,-0.2586,-0.2511,-0.25,-0.2491,-0.2448,-0.2435,-0.2603,-0.2603,-0.2603,0,-0.1904,-0.193,-0.1967,-0.1996,-0.2043,-0.215,-0.2205,-0.2295,-0.2429,-0.2454,-0.2492,-0.255,-0.2591,-0.2571,-0.2565,-0.2593,-0.2552,-0.2602,-0.2506,-0.2496,-0.2486,-0.2445,-0.243,-0.2602,-0.2602,-0.2602,-0.2602,0,-0.1923,-0.1951,-0.1966,-0.2043,-0.2108,-0.2166,-0.2284,-0.237,-0.2468,-0.2532,-0.2554,-0.2565,-0.2574,-0.258,-0.2598,-0.2524,-0.2519,-0.2513,-0.2514,-0.2473,-0.2433,-0.2418,-0.2601,-0.2601,-0.2601,-0.2602,0,0,-0.1877,-0.1963,-0.1959,-0.1987,-0.2125,-0.2177,-0.2317,-0.2429,-0.2472,-0.2571,-0.2578,-0.2612,-0.2563,-0.2568,-0.2532,-0.2475,-0.2388,-0.2465,-0.2462,-0.2423,-0.223,-0.2121,-0.2094,-0.2353,-0.235,-0.2348,-0.2234,0,-0.1874,-0.1915,-0.198,-0.2067,-0.2105,-0.2228,-0.2334,-0.2445,-0.2535,-0.2573,-0.2556,-0.2563,-0.2575,-0.2533,-0.2472,-0.2413,-0.2345,-0.242,-0.2276,-0.2272,-0.2177,-0.2071,-0.1974,-0.1854,-0.2219,-0.2217,-0.2215,0,-0.1852,-0.1882,-0.1943,-0.2038,-0.206,-0.2154,-0.2276,-0.2374,-0.2462,-0.2503,-0.2486,-0.2492,-0.2431,-0.2431,-0.2302,-0.2345,-0.2281,-0.2237,-0.2231,-0.2119,-0.2132,-0.195,-0.1813,-0.219,-0.2192,-0.2194,-0.2195,0,-0.1767,-0.1847,-0.189,-0.1924,-0.2071,-0.2124,-0.2218,-0.2338,-0.239,-0.2431,-0.2454,-0.2387,-0.2355,-0.2262,-0.2205,-0.2247,-0.2041,-0.2091,-0.1928,-0.1923,-0.1806,-0.1793,-0.1962,-0.1962,-0.1962,-0.1962,-0.1963,0,-0.173,-0.1761,-0.1846,-0.1868,-0.192,-0.2032,-0.2089,-0.2186,-0.2254,-0.2286,-0.2366,-0.2347,-0.2309,-0.2223,-0.2153,-0.1972,-0.1995,-0.1888,-0.1859,-0.18,-0.1789,-0.206,-0.2073,-0.1958,-0.1959,-0.196,-0.1961,0,-0.1668,-0.1723,-0.1769,-0.1865,-0.1892,-0.1929,-0.2045,-0.2083,-0.2171,-0.2206,-0.2228,-0.2298,-0.2195,-0.2117,-0.1962,-0.1904,-0.175,-0.1673,-0.1621,-0.1584,-0.1712,-0.1726,-0.1508,-0.1502,-0.1498,-0.1494,-0.1491,0,-0.1653,-0.1663,-0.173,-0.1769,-0.1828,-0.1885,-0.1941,-0.2033,-0.2065,-0.2173,-0.217,-0.2137,-0.2089,-0.1834,-0.1676,-0.1481,-0.1559,-0.1308,-0.1363,-0.1658,-0.1653,-0.1674,-0.1693,-0.1226,-0.1221,-0.1216,-0.1213,0,-0.1624,-0.1644,-0.1674,-0.1741,-0.1798,-0.1826,-0.189,-0.1893,-0.1999,-0.2005,-0.1986,-0.1965,-0.1804,-0.1577,-0.1367,-0.1244,-0.1337,-0.1215,-0.1479,-0.1351,-0.138,-0.138,-0.141,-0.1176,-0.1179,-0.1182,-0.1184,-0.1186,-0.1601,-0.16,-0.1647,-0.1707,-0.1773,-0.1784,-0.1744,-0.1767,-0.1739,-0.169,-0.1729,-0.1589,-0.1602,-0.1186,-0.1052,-0.0912,-0.1037,-0.1007,-0.1026,-0.1047,-0.1029,-0.1047,-0.078,-0.0781,-0.0782,-0.0784,-0.0784,0,-0.1562,-0.1583,-0.1629,-0.1673,-0.1709,-0.1752,-0.1729,-0.1632,-0.1512,-0.1412,-0.1289,-0.1085,-0.0961,-0.0914,-0.0692,-0.0663,-0.0689,-0.0591,-0.0687,-0.0723,-0.0756,-0.0729,-0.0397,-0.0395,-0.0394,-0.0393,0,0,-0.1559,-0.1545,-0.1544,-0.158,-0.1629,-0.1568,-0.1507,-0.1343,-0.1205,-0.0948,-0.0779,-0.0764,-0.0867,-0.0617,-0.0593,-0.0473,-0.0567,-0.0395,-0.071,-0.0857,-0.0887,-0.0999,-0.0997,0,0,0,0,0]},{"header":{"parameterUnit":"m.s-1","parameterCategory":2,"la1":30.2991,"la2":30.254,"lo1":-89.0895,"lo2":-89.0444,"dy":0.0017,"dx":0.0017,"nx":28,"ny":28,"refTime":"2023-07-28T09:00:00:Z","depth":"2","parameterNumber":3,"parameterNumberName":"V-component_of_CURRENTS"},"data":[0,0,0,0,0,0,0,0,0,0,0,0,0,0,0,0,0,0,0,0,0,0,0,0,0,0,0,0,0,0,0,0,0,0,0,0,0,0,0,0,0,0,0,0,0,0,0,0,0,0,0,0,0,0,0,0,0,0,-0.0198,-0.0197,0,-0.0093,-0.0092,-0.0091,-0.0013,-0.0012,-0.0012,-0.0011,0.0275,0.0281,0.0288,0,0,0,0,0,0,0,0,0,0,0,0,0,-0.027,-0.027,-0.0199,-0.0197,-0.0196,-0.0093,-0.0092,-0.009,-0.0013,-0.0012,-0.0011,-0.001,0.0273,0.0281,0.0289,0,0,0,0,0,0,0,0,0,0,0,0,0,-0.0211,-0.027,-0.0199,-0.0144,-0.0137,-0.0093,-0.0092,-0.009,-0.0014,-0.0012,-0.0011,-0.001,0.027,0.028,0.029,0.0329,0,0,0.0321,0.0326,0,0,0,0,0,0,0,0,-0.0215,-0.0209,-0.0153,-0.0147,-0.014,-0.0063,-0.0012,0.006,-0.0014,-0.0062,-0.0011,-0.0009,0.0179,0.0196,0.0209,0.0342,0.0354,0.0322,0.0328,0.0333,0.0336,0,0,0,0,0,0,0,-0.0219,-0.0212,-0.0158,-0.0152,-0.0144,-0.0102,-0.0093,0.0001,0.0052,-0.0058,-0.0052,-0.0038,0.0183,0.0198,0.0216,0.0359,0.0322,0.0331,0.0337,0.0341,0.0752,0.0757,0,0,0,0,0,0,-0.0233,-0.0217,-0.0162,-0.0155,-0.0173,-0.0102,-0.0092,-0.0091,0.0047,0.0069,-0.0039,-0.0034,0.018,0.0204,0.0227,0.0405,0.0333,0.0342,0.0348,0.0747,0.0753,0.0758,0,0,0,0,0,0,-0.0236,-0.023,-0.0166,-0.0181,-0.017,-0.0102,-0.0101,-0.0089,-0.0052,0.006,0.0085,-0.0011,0.0182,0.0213,0.0331,0.0413,0.0347,0.0356,0.0742,0.0749,0.0756,0.0684,0,0,0,0,0,0,-0.0238,-0.0232,-0.0238,-0.0183,-0.0169,-0.0136,-0.0102,-0.0088,-0.0046,-0.0038,0.0092,0.0118,0.0185,0.0315,0.0341,0.0426,0.0364,0.0736,0.0745,0.0753,0.068,0.0688,0.0694,0,0,0,0,0,-0.0242,-0.0252,-0.024,-0.0232,-0.018,-0.0136,-0.0126,-0.0074,-0.0046,-0.0035,0.0063,0.0115,0.0394,0.0325,0.0355,0.0445,0.0731,0.0742,0.0753,0.0677,0.0686,0.0694,0,0,0,0,0,0,-0.0277,-0.0244,-0.0229,-0.0226,-0.0184,-0.0122,-0.0109,-0.0068,0.0012,0.0028,0.0137,0.017,0.0333,0.0396,0.0318,0.0602,0.0589,0.0605,0.0521,0.0531,0.0538,0.0453,0.0373,0,0,0,0,0,-0.0293,-0.0296,-0.0247,-0.0243,-0.0227,-0.0166,-0.0141,-0.0104,-0.0027,0.0007,0.0106,0.0242,0.0398,0.0459,0.0595,0.0703,0.0679,0.0801,0.0808,0.0813,0.0773,0.0766,0.0763,0.0793,0.0793,0.0793,0,0,-0.0302,-0.0286,-0.0284,-0.0251,-0.0217,-0.0174,-0.0148,-0.0111,-0.0035,0.0031,0.0161,0.0272,0.0441,0.0588,0.0668,0.0642,0.0803,0.0826,0.0828,0.0785,0.0776,0.0771,0.0767,0.0801,0.0799,0.0798,0,0,-0.0321,-0.0311,-0.0318,-0.029,-0.0245,-0.0186,-0.0171,-0.0099,-0.003,0.0104,0.0196,0.0306,0.0548,0.0632,0.0729,0.085,0.0855,0.0955,0.089,0.0885,0.0878,0.0872,0.0842,0.0833,0.0934,0.0934,0.0934,0,-0.0334,-0.0337,-0.0308,-0.0301,-0.0274,-0.0186,-0.0165,-0.0066,0.0047,0.0095,0.016,0.0446,0.0572,0.0718,0.0776,0.0858,0.084,0.0829,0.0879,0.0873,0.0867,0.0838,0.0829,0.0932,0.0932,0.0932,0.0933,0,-0.0353,-0.035,-0.0348,-0.0301,-0.0262,-0.0235,-0.0111,-0.0036,0.0084,0.0171,0.0344,0.0483,0.0621,0.0728,0.0801,0.0859,0.0854,0.0891,0.0818,0.0857,0.0828,0.0819,0.0929,0.093,0.093,0.0931,0,0,-0.0391,-0.037,-0.0369,-0.0368,-0.0271,-0.0246,-0.0106,0.001,0.0061,0.0242,0.0301,0.0574,0.0586,0.069,0.0775,0.0775,0.0744,0.0803,0.0804,0.0701,0.0698,0.0733,0.0728,0.077,0.0768,0.0767,0.0689,0,-0.0412,-0.0427,-0.0388,-0.0357,-0.0349,-0.0247,-0.0151,-0.0032,0.0111,0.0194,0.036,0.048,0.0604,0.0633,0.0664,0.0732,0.0721,0.076,0.0738,0.0737,0.0703,0.072,0.0712,0.0645,0.0681,0.068,0.0679,0,-0.0439,-0.0449,-0.0453,-0.0431,-0.0422,-0.0375,-0.0271,-0.0173,-0.0014,0.0073,0.0191,0.032,0.0404,0.0485,0.0566,0.058,0.0625,0.0666,0.0665,0.0702,0.0757,0.0623,0.0629,0.0665,0.0666,0.0667,0.0668,0,-0.0499,-0.049,-0.0503,-0.0492,-0.0437,-0.0417,-0.0359,-0.0224,-0.0165,-0.0036,-0.0005,0.0138,0.0221,0.0281,0.0465,0.0481,0.052,0.0552,0.0617,0.0619,0.061,0.0614,0.056,0.056,0.056,0.056,0.0561,0,-0.054,-0.0553,-0.0546,-0.0559,-0.0577,-0.0514,-0.05,-0.042,-0.0342,-0.0282,-0.0109,-0.0028,0.0176,0.0287,0.0379,0.0491,0.0462,0.0581,0.0598,0.0596,0.06,0.0624,0.0633,0.0557,0.0558,0.0559,0.0559,0,-0.0595,-0.0589,-0.0617,-0.061,-0.0609,-0.0621,-0.0594,-0.0579,-0.0508,-0.0436,-0.0401,-0.0163,0.0016,0.0198,0.0335,0.0408,0.0478,0.0525,0.051,0.0528,0.0579,0.0587,0.0516,0.0516,0.0517,0.0517,0.0517,0,-0.0626,-0.0649,-0.0672,-0.0697,-0.0695,-0.0707,-0.0708,-0.0653,-0.0631,-0.048,-0.0454,-0.0233,-0.0017,0.0182,0.037,0.0491,0.0526,0.0499,0.054,0.0548,0.0573,0.058,0.0586,0.0495,0.0495,0.0495,0.0495,0,-0.0687,-0.0695,-0.0725,-0.0773,-0.0794,-0.08,-0.0797,-0.0813,-0.0711,-0.0652,-0.0474,-0.0298,0.0009,0.0244,0.0429,0.0493,0.0472,0.0503,0.0501,0.053,0.0529,0.0554,0.0561,0.0496,0.0496,0.0496,0.0496,0.0496,-0.0736,-0.0774,-0.081,-0.0848,-0.0862,-0.0851,-0.0846,-0.0819,-0.0769,-0.0615,-0.0483,-0.0208,-0.0005,0.0335,0.0438,0.0544,0.0551,0.0521,0.052,0.0519,0.0553,0.0556,0.0531,0.0531,0.0531,0.0531,0.0531,0,-0.0794,-0.0829,-0.0877,-0.0913,-0.093,-0.0886,-0.0868,-0.0841,-0.0748,-0.0561,-0.0382,-0.0157,0.009,0.0313,0.0498,0.0551,0.0546,0.0532,0.0514,0.0513,0.0512,0.0546,0.0521,0.0521,0.0521,0.0522,0,0,-0.083,-0.089,-0.0907,-0.0951,-0.0949,-0.0899,-0.0856,-0.0784,-0.0659,-0.0466,-0.0258,-0.0063,0.0173,0.026,0.0359,0.0469,0.0464,0.0465,0.0465,0.0431,0.0429,0.0499,0.055,0,0,0,0,0]}],[{"header":{"parameterUnit":"m.s-1","parameterCategory":2,"la1":30.2991,"la2":30.254,"lo1":-89.0895,"lo2":-89.0444,"dy":0.0017,"dx":0.0017,"nx":28,"ny":28,"refTime":"2023-07-28T09:00:00:Z","depth":"4","parameterNumber":2,"parameterNumberName":"U-component_of_CURRENTS"},"data":[0,0,0,0,0,0,0,0,0,0,0,0,0,0,0,0,0,0,0,0,0,0,0,0,0,0,0,0,0,0,0,0,0,0,0,0,0,0,0,0,0,0,0,0,0,0,0,0,0,0,0,0,0,0,0,0,0,0,-0.1211,-0.1211,0,-0.1227,-0.1228,-0.1228,-0.1253,-0.1253,-0.1253,-0.1253,-0.1284,-0.1285,-0.1285,0,0,0,0,0,0,0,0,0,0,0,0,0,-0.1174,-0.1175,-0.1211,-0.1211,-0.1211,-0.1227,-0.1228,-0.1228,-0.1253,-0.1253,-0.1253,-0.1253,-0.1284,-0.1285,-0.1285,0,0,0,0,0,0,0,0,0,0,0,0,0,-0.1192,-0.1175,-0.1211,-0.1223,-0.1225,-0.1227,-0.1228,-0.1228,-0.1253,-0.1253,-0.1253,-0.1254,-0.1284,-0.1285,-0.1286,-0.1284,0,0,-0.1288,-0.1289,0,0,0,0,0,0,0,0,-0.1191,-0.1194,-0.1222,-0.1223,-0.1224,-0.1236,-0.1226,-0.1247,-0.1252,-0.1244,-0.1253,-0.1254,-0.1268,-0.127,-0.1275,-0.1286,-0.1287,-0.1288,-0.1289,-0.1289,-0.129,0,0,0,0,0,0,0,-0.119,-0.1193,-0.122,-0.1221,-0.1223,-0.1219,-0.1222,-0.123,-0.1256,-0.1245,-0.1246,-0.1244,-0.1269,-0.1274,-0.1276,-0.1288,-0.1288,-0.1289,-0.129,-0.129,-0.1351,-0.1352,0,0,0,0,0,0,-0.1185,-0.1192,-0.1219,-0.122,-0.1205,-0.1219,-0.1223,-0.1234,-0.1256,-0.1258,-0.1244,-0.1245,-0.1273,-0.1275,-0.1277,-0.1314,-0.1289,-0.129,-0.1291,-0.135,-0.1351,-0.1353,0,0,0,0,0,0,-0.1184,-0.1187,-0.1218,-0.1204,-0.1207,-0.1219,-0.1231,-0.1234,-0.1254,-0.1254,-0.1258,-0.1263,-0.1273,-0.1276,-0.1303,-0.1314,-0.1291,-0.1292,-0.1349,-0.1351,-0.1352,-0.1365,0,0,0,0,0,0,-0.1183,-0.1187,-0.1201,-0.1204,-0.1208,-0.1229,-0.1231,-0.1234,-0.125,-0.1253,-0.1271,-0.1274,-0.1274,-0.1302,-0.1304,-0.1315,-0.1292,-0.1348,-0.135,-0.1352,-0.1363,-0.1366,-0.137,0,0,0,0,0,-0.1182,-0.1194,-0.1202,-0.1205,-0.1224,-0.123,-0.1232,-0.1242,-0.1251,-0.1262,-0.128,-0.1274,-0.1316,-0.1303,-0.1305,-0.1317,-0.1347,-0.1349,-0.1351,-0.1361,-0.1366,-0.1369,0,0,0,0,0,0,-0.1184,-0.1197,-0.1206,-0.1223,-0.1231,-0.1233,-0.1244,-0.1251,-0.1273,-0.1284,-0.1286,-0.129,-0.1321,-0.132,-0.1306,-0.1343,-0.1331,-0.1334,-0.1338,-0.1342,-0.1345,-0.1337,-0.1293,0,0,0,0,0,-0.1191,-0.1208,-0.1214,-0.123,-0.1234,-0.1244,-0.125,-0.126,-0.1273,-0.1285,-0.1296,-0.1313,-0.133,-0.1337,-0.1353,-0.1369,-0.1363,-0.138,-0.1383,-0.1386,-0.1383,-0.1394,-0.1397,-0.1361,-0.136,-0.136,0,0,-0.1199,-0.1206,-0.1218,-0.1232,-0.1241,-0.1248,-0.125,-0.1267,-0.1279,-0.1284,-0.1312,-0.1329,-0.134,-0.1363,-0.1375,-0.1363,-0.1393,-0.1389,-0.1391,-0.1386,-0.1397,-0.14,-0.1403,-0.1362,-0.1362,-0.1362,0,0,-0.1205,-0.1228,-0.1237,-0.1247,-0.1261,-0.1264,-0.1272,-0.1286,-0.1302,-0.1329,-0.1338,-0.1357,-0.1385,-0.1387,-0.1393,-0.1423,-0.1417,-0.1438,-0.144,-0.1451,-0.1453,-0.1456,-0.1446,-0.1448,-0.1432,-0.1432,-0.1432,0,-0.1213,-0.1226,-0.1241,-0.1248,-0.1259,-0.1272,-0.1283,-0.1297,-0.1321,-0.1334,-0.1343,-0.1386,-0.1392,-0.1409,-0.1421,-0.1428,-0.1433,-0.142,-0.1453,-0.1456,-0.1458,-0.1448,-0.1449,-0.1433,-0.1433,-0.1433,-0.1433,0,-0.1216,-0.1236,-0.1242,-0.1259,-0.1273,-0.1288,-0.1304,-0.1327,-0.1349,-0.1358,-0.1395,-0.1408,-0.143,-0.1436,-0.1438,-0.1458,-0.1456,-0.1461,-0.1438,-0.1462,-0.145,-0.1451,-0.1434,-0.1434,-0.1434,-0.1434,0,0,-0.1207,-0.1239,-0.1244,-0.1258,-0.1285,-0.1295,-0.1323,-0.1343,-0.1367,-0.139,-0.142,-0.1437,-0.145,-0.1457,-0.1463,-0.1464,-0.1477,-0.1471,-0.1471,-0.1452,-0.1496,-0.1369,-0.1358,-0.1496,-0.1496,-0.1497,-0.1478,0,-0.1204,-0.1221,-0.1242,-0.1268,-0.1277,-0.1311,-0.1336,-0.1364,-0.1391,-0.1424,-0.1435,-0.1469,-0.1456,-0.148,-0.1479,-0.1488,-0.1483,-0.1481,-0.1484,-0.1483,-0.136,-0.1355,-0.1498,-0.1479,-0.1479,-0.1479,-0.1479,0,-0.1189,-0.1206,-0.1229,-0.1276,-0.1287,-0.1311,-0.1362,-0.1387,-0.143,-0.1457,-0.1482,-0.1503,-0.1512,-0.151,-0.1506,-0.1513,-0.1505,-0.1499,-0.1499,-0.1374,-0.1358,-0.1454,-0.1481,-0.1481,-0.1481,-0.1481,-0.1481,0,-0.1153,-0.1195,-0.1216,-0.1231,-0.1285,-0.1316,-0.1349,-0.1396,-0.142,-0.1481,-0.1508,-0.1529,-0.1552,-0.1546,-0.1523,-0.1532,-0.1514,-0.1524,-0.1395,-0.1387,-0.1502,-0.15,-0.152,-0.152,-0.152,-0.1521,-0.1521,0,-0.1124,-0.1146,-0.1208,-0.1219,-0.1256,-0.1308,-0.1349,-0.139,-0.1448,-0.1458,-0.1522,-0.1529,-0.1568,-0.1559,-0.1536,-0.1448,-0.152,-0.1383,-0.1369,-0.1508,-0.1506,-0.1502,-0.15,-0.152,-0.152,-0.152,-0.152,0,-0.1072,-0.1113,-0.114,-0.121,-0.1235,-0.1261,-0.1335,-0.1355,-0.1431,-0.1451,-0.1473,-0.1538,-0.1529,-0.1533,-0.1525,-0.1447,-0.1392,-0.1348,-0.1479,-0.1476,-0.1258,-0.1257,-0.1202,-0.1197,-0.1193,-0.119,-0.1187,0,-0.1043,-0.105,-0.1118,-0.1131,-0.1166,-0.1216,-0.124,-0.1327,-0.134,-0.142,-0.1413,-0.1459,-0.1477,-0.135,-0.1385,-0.1322,-0.1303,-0.1255,-0.1262,-0.1231,-0.1224,-0.123,-0.1234,-0.1181,-0.118,-0.1179,-0.1178,0,-0.0983,-0.1014,-0.1036,-0.1058,-0.1088,-0.1111,-0.1156,-0.116,-0.1239,-0.1327,-0.1294,-0.1279,-0.1275,-0.1262,-0.1226,-0.1182,-0.1273,-0.1214,-0.1222,-0.1228,-0.1204,-0.1203,-0.1212,-0.1164,-0.1166,-0.1167,-0.1168,0,-0.0939,-0.0933,-0.0957,-0.0966,-0.0992,-0.0979,-0.1025,-0.103,-0.1058,-0.1152,-0.1132,-0.118,-0.125,-0.1188,-0.1147,-0.11,-0.1084,-0.1017,-0.1036,-0.1051,-0.1009,-0.0958,-0.0815,0,0,0,0,0,-0.0886,-0.0862,-0.086,-0.0854,-0.087,-0.0882,-0.0946,-0.0997,-0.1081,-0.1009,-0.1065,-0.1046,-0.1005,-0.1042,-0.0963,-0.1092,-0.1098,-0.0992,-0.1034,-0.1087,-0.1103,-0.1067,0,0,0,0,0,0,-0.0845,-0.0843,-0.0825,-0.0747,-0.0719,-0.0723,-0.0756,-0.0823,-0.0796,-0.089,-0.0885,-0.0939,-0.094,-0.1025,-0.0928,-0.0934,-0.0923,-0.1027,-0.1022,-0.1078,-0.1092,-0.1105,-0.1074,0,0,0,0,0]},{"header":{"parameterUnit":"m.s-1","parameterCategory":2,"la1":30.2991,"la2":30.254,"lo1":-89.0895,"lo2":-89.0444,"dy":0.0017,"dx":0.0017,"nx":28,"ny":28,"refTime":"2023-07-28T09:00:00:Z","depth":"4","parameterNumber":3,"parameterNumberName":"V-component_of_CURRENTS"},"data":[0,0,0,0,0,0,0,0,0,0,0,0,0,0,0,0,0,0,0,0,0,0,0,0,0,0,0,0,0,0,0,0,0,0,0,0,0,0,0,0,0,0,0,0,0,0,0,0,0,0,0,0,0,0,0,0,0,0,-0.0211,-0.0211,0,-0.0222,-0.0222,-0.0223,-0.0205,-0.0204,-0.0204,-0.0203,-0.0196,-0.0196,-0.0197,0,0,0,0,0,0,0,0,0,0,0,0,0,-0.02,-0.02,-0.0211,-0.0211,-0.0211,-0.0222,-0.0222,-0.0223,-0.0205,-0.0204,-0.0204,-0.0203,-0.0196,-0.0196,-0.0197,0,0,0,0,0,0,0,0,0,0,0,0,0,-0.0208,-0.02,-0.0211,-0.0203,-0.0202,-0.0222,-0.0222,-0.0223,-0.0205,-0.0204,-0.0203,-0.0202,-0.0196,-0.0196,-0.0197,-0.0223,0,0,-0.0199,-0.0199,0,0,0,0,0,0,0,0,-0.0208,-0.0209,-0.0204,-0.0204,-0.0203,-0.021,-0.0216,-0.0221,-0.0206,-0.0206,-0.0203,-0.0202,-0.0199,-0.0199,-0.0206,-0.0222,-0.0222,-0.0199,-0.02,-0.02,-0.02,0,0,0,0,0,0,0,-0.0207,-0.0208,-0.0217,-0.0204,-0.0204,-0.0207,-0.0207,-0.0217,-0.0209,-0.0205,-0.0204,-0.0204,-0.0199,-0.0205,-0.0205,-0.0222,-0.0199,-0.02,-0.02,-0.0201,-0.0234,-0.0234,0,0,0,0,0,0,-0.0203,-0.0208,-0.0216,-0.0217,-0.0201,-0.0208,-0.0208,-0.021,-0.0209,-0.0208,-0.0205,-0.0203,-0.0204,-0.0205,-0.0205,-0.0227,-0.02,-0.0201,-0.0201,-0.0233,-0.0234,-0.0234,0,0,0,0,0,0,-0.0203,-0.0204,-0.0216,-0.0211,-0.0213,-0.0209,-0.0212,-0.0211,-0.0217,-0.0208,-0.0206,-0.0212,-0.0204,-0.0204,-0.0218,-0.0227,-0.0201,-0.0202,-0.0233,-0.0233,-0.0234,-0.0277,0,0,0,0,0,0,-0.0203,-0.0204,-0.0211,-0.0211,-0.0213,-0.0235,-0.0212,-0.0212,-0.0218,-0.0216,-0.0214,-0.0212,-0.0203,-0.0217,-0.0219,-0.0228,-0.0202,-0.0232,-0.0233,-0.0234,-0.0275,-0.0279,-0.0283,0,0,0,0,0,-0.0203,-0.0219,-0.0211,-0.0212,-0.022,-0.0236,-0.0238,-0.0232,-0.0219,-0.0232,-0.0227,-0.0212,-0.0223,-0.0219,-0.0221,-0.023,-0.0232,-0.0233,-0.0234,-0.0273,-0.0278,-0.0283,0,0,0,0,0,0,-0.0218,-0.0218,-0.021,-0.0225,-0.0231,-0.0232,-0.0242,-0.0238,-0.0245,-0.024,-0.0228,-0.0227,-0.024,-0.0232,-0.0227,-0.024,-0.0221,-0.0223,-0.0251,-0.0255,-0.0259,-0.0251,-0.0203,0,0,0,0,0,-0.0224,-0.0235,-0.0234,-0.0246,-0.0249,-0.0246,-0.0253,-0.0249,-0.0252,-0.0253,-0.0251,-0.0246,-0.0248,-0.0249,-0.025,-0.0266,-0.0238,-0.0269,-0.0273,-0.0276,-0.027,-0.0259,-0.0261,-0.0238,-0.0238,-0.0238,0,0,-0.0232,-0.0234,-0.0239,-0.025,-0.0251,-0.0264,-0.0248,-0.026,-0.0269,-0.0253,-0.0267,-0.0264,-0.0256,-0.0269,-0.0273,-0.0262,-0.0263,-0.0277,-0.028,-0.0272,-0.026,-0.0263,-0.0265,-0.0238,-0.0238,-0.0238,0,0,-0.0256,-0.0255,-0.0271,-0.0278,-0.0283,-0.0283,-0.0288,-0.0293,-0.0292,-0.0309,-0.0294,-0.03,-0.0306,-0.0301,-0.0298,-0.0326,-0.0286,-0.0321,-0.0334,-0.0324,-0.0326,-0.0327,-0.0272,-0.0268,-0.0321,-0.0321,-0.0321,0,-0.0265,-0.0283,-0.028,-0.0296,-0.0301,-0.0292,-0.0308,-0.0313,-0.0323,-0.0322,-0.0317,-0.0321,-0.032,-0.0326,-0.0332,-0.0335,-0.0304,-0.0319,-0.0329,-0.033,-0.033,-0.0274,-0.0269,-0.0323,-0.0323,-0.0322,-0.0322,0,-0.0297,-0.0312,-0.0323,-0.0336,-0.0343,-0.0358,-0.0356,-0.0366,-0.0362,-0.0358,-0.0365,-0.0365,-0.036,-0.0365,-0.0358,-0.0361,-0.0328,-0.0338,-0.0318,-0.0335,-0.0274,-0.0268,-0.0326,-0.0325,-0.0325,-0.0324,0,0,-0.0317,-0.0341,-0.0346,-0.0357,-0.0364,-0.0375,-0.0386,-0.0394,-0.0402,-0.0401,-0.0404,-0.0411,-0.0397,-0.0392,-0.0384,-0.0377,-0.0355,-0.0358,-0.0357,-0.0303,-0.0294,-0.0263,-0.0253,-0.0369,-0.0369,-0.0369,-0.0242,0,-0.0343,-0.0383,-0.0382,-0.0415,-0.0432,-0.0423,-0.0436,-0.0438,-0.0436,-0.0439,-0.0422,-0.0426,-0.0409,-0.0412,-0.04,-0.0369,-0.0345,-0.0386,-0.0285,-0.0281,-0.0253,-0.0248,-0.0368,-0.0237,-0.0236,-0.0235,-0.0234,0,-0.0374,-0.0397,-0.0434,-0.0455,-0.046,-0.0476,-0.0487,-0.0496,-0.0489,-0.0485,-0.047,-0.0452,-0.0426,-0.0425,-0.0354,-0.0377,-0.0334,-0.0309,-0.0304,-0.0256,-0.0241,-0.0221,-0.0223,-0.0224,-0.0224,-0.0225,-0.0226,0,-0.0397,-0.0431,-0.0463,-0.0471,-0.0494,-0.0506,-0.0512,-0.0513,-0.0523,-0.051,-0.0513,-0.0469,-0.045,-0.0398,-0.0317,-0.0339,-0.0229,-0.0256,-0.0179,-0.0174,-0.022,-0.022,-0.0212,-0.0212,-0.0212,-0.0213,-0.0213,0,-0.0426,-0.0454,-0.048,-0.0502,-0.0539,-0.0533,-0.0564,-0.0567,-0.0565,-0.0572,-0.0536,-0.0524,-0.0448,-0.0372,-0.0306,-0.0198,-0.021,-0.0166,-0.0146,-0.0237,-0.0241,-0.0214,-0.0215,-0.0208,-0.0209,-0.021,-0.0211,0,-0.045,-0.0469,-0.0512,-0.0544,-0.0556,-0.0581,-0.0605,-0.0626,-0.0616,-0.0622,-0.0617,-0.0553,-0.0442,-0.0338,-0.0231,-0.0182,-0.0091,-0.0053,-0.0108,-0.0095,-0.0041,-0.0046,0.0039,0.0041,0.0043,0.0044,0.0046,0,-0.0468,-0.0494,-0.0547,-0.058,-0.06,-0.0633,-0.066,-0.0658,-0.0669,-0.0636,-0.0635,-0.0532,-0.0472,-0.0263,-0.0171,-0.0005,-0.0006,0.0046,-0.0046,-0.0029,-0.0018,-0.0026,-0.0034,0.0048,0.0049,0.0049,0.005,0,-0.0501,-0.0523,-0.0559,-0.0623,-0.0665,-0.0705,-0.0731,-0.0736,-0.0719,-0.0715,-0.0632,-0.0529,-0.0391,-0.0243,-0.0096,0.0001,0.0009,0.0063,0.0059,-0.0028,-0.0017,-0.001,-0.0019,0.0055,0.0055,0.0054,0.0054,0,-0.0527,-0.056,-0.061,-0.0659,-0.0717,-0.0753,-0.0763,-0.0749,-0.0743,-0.0686,-0.065,-0.0508,-0.042,-0.0238,-0.0111,0.0009,0.0003,-0.0006,-0.0007,-0.0013,-0.0081,-0.0079,0.0003,0,0,0,0,0,-0.0549,-0.0586,-0.0641,-0.0699,-0.0753,-0.0778,-0.0802,-0.0798,-0.077,-0.0711,-0.0675,-0.0539,-0.0341,-0.0255,-0.0128,-0.0108,0.0008,0.0038,-0.0006,0.0088,0.0081,0.001,0,0,0,0,0,0,-0.0569,-0.0624,-0.0644,-0.0713,-0.0753,-0.0807,-0.0819,-0.0802,-0.0754,-0.0706,-0.0586,-0.0533,-0.0325,-0.04,-0.013,-0.0095,-0.0115,0.0135,0.0137,0.0092,0.0086,0.008,0.0005,0,0,0,0,0]}]]